Regional Weather Roundup
Issued by NWS

Home | Current Version | Previous Version | Graphics & Text | Print | Product List | Glossary On
Versions: 1 2 3 4 5 6 7 8 9 10 11 12 13 14 15 16 17 18 19 20 21 22 23 24 25 26 27
000
ASUS45 KBOU 191906
RWRCO

WEATHER ROUNDUP FOR COLORADO
NATIONAL WEATHER SERVICE DENVER/BOULDER CO
100 PM MDT SAT APR 19 2014

NOTE: "FAIR" INDICATES FEW OR NO CLOUDS BELOW 12000 FEET WITH NO
SIGNIFICANT WEATHER AND/OR OBSTRUCTIONS TO VISIBILITY.

COZ001>005-013-030-031-192000-
...NORTHWEST COLORADO...

CITY           SKY/WX    TMP DP  RH WIND       PRES   REMARKS
CRAIG          CLOUDY    59  36  42 CALM      30.09F
HAYDEN         CLOUDY    55  36  47 NW7       30.13F
MEEKER         LGT RAIN  49  41  74 W8        30.14R
MOUNT WERNER   CLOUDY    43  27  52 W8        30.26F
STEAMBOAT SPGS CLOUDY    59  27  29 N5        30.10F
WALDEN         CLOUDY    54  28  37 SW6       30.14F
$$

COZ006>008-011-192000-
...WEST CENTRAL VALLEYS...

CITY           SKY/WX    TMP DP  RH WIND       PRES   REMARKS
GRAND JUNCTION CLOUDY    58  46  64 CALM      30.10F
MONTROSE       CLOUDY    59  39  47 W9        30.12F
EAGLE          MOSUNNY   61  34  36 CALM      30.09F
RIFLE          CLOUDY    57  41  55 W18       30.09F
DELTA          PTSUNNY   64  38  39 SW7       30.09F
NUCLA            N/A     55  41  58 SW7       30.16F
$$

COZ017>023-064>068-192000-
...SOUTHWEST COLORADO...

CITY           SKY/WX    TMP DP  RH WIND       PRES   REMARKS
DURANGO        CLOUDY    56  35  45 NW8       30.16F
CORTEZ         PTSUNNY   64  38  38 S8        30.12F
PAGOSA SPRINGS LGT RAIN  47  37  70 CALM      30.20F
TELLURIDE      CLOUDY    48  30  49 CALM      30.20F
WOLF CREEK PAS LGT SNOW  30  30 100 SW13G23   30.33S WCI  20
$$

COZ009-010-012-014-032>034-037-058>063-192000-
...CENTRAL COLORADO...

CITY           SKY/WX    TMP DP  RH WIND       PRES   REMARKS
ASPEN          CLOUDY    57  32  38 NW8       30.11F
BUENA VISTA    PTSUNNY   55  33  42 S17       30.12F
COPPER MTN     PTSUNNY   41  25  52 S12       30.28F
BERTHOUD PASS  FAIR      34  27  75 MISG      30.33S
COTTONWOOD PAS CLOUDY    54  32  43 S10G16    30.21R
GUNNISON       MOSUNNY   54  30  40 SW17      30.18S
KREMMLING      PTSUNNY   55  30  38 N3        30.12F
LEADVILLE      CLOUDY    44  26  49 VRB3      30.19S
MONARCH PASS   PTSUNNY   37  28  70 SW15G23   30.40F
SALIDA         PTSUNNY   65  28  25 S14G21    30.17F
SUNLIGHT       CLOUDY    43  32  65 SW3       30.27F
WILKERSON PASS CLOUDY    41  28  60 S5        30.30F
$$

COZ069>075-192000-
...SAN LUIS VALLEY/SANGRE DE CRISTO MOUNTAINS...

CITY           SKY/WX    TMP DP  RH WIND       PRES   REMARKS
ALAMOSA        PTSUNNY   59  29  31 S8        30.13F
LA VETA PASS   PTSUNNY   52  28  40 SW8G22    30.25S
SAGUACHE       PTSUNNY   57  28  33 S8        30.15F
$$

COZ035-036-038>040-192000-
...NORTHERN COLORADO FRONT RANGE...

CITY           SKY/WX    TMP DP  RH WIND       PRES   REMARKS
DENVER INTL AP CLOUDY    64  36  35 E13       30.06F
DMNS CITY PARK   N/A     66  34  30 N6G13     30.04F
AURORA         PTSUNNY   64  36  34 NE6       30.07F
FRONT RANGE AP CLOUDY    63  37  39 NE6       30.08F
ERIE MUNI ARPT CLOUDY    62  36  38 N3        30.06F
BOULDER MUN AP CLOUDY    61  37  41 E5        30.06F
CENTENNIAL     PTSUNNY   63  32  31 N5        30.06F
BROOMFIELD     PTSUNNY   59  36  41 VRB5      30.09
FORT COLLINS   CLOUDY    61  39  44 SE10      30.07F
LONGMONT       CLOUDY    64  37  36 NE7       30.07F
$$

COZ041-046-047-076>085-087-088-192000-
...PIKES PEAK/PALMER DIVIDE AND SOUTHERN FOOTHILLS...

CITY           SKY/WX    TMP DP  RH WIND       PRES   REMARKS
COLO. SPRINGS  PTSUNNY   67  29  24 VRB7      30.07F
A. F. ACADEMY  MOSUNNY   64  29  27 CALM      30.08F
ELLICOTT       NOT AVBL
FALCON         PTSUNNY   64  31  29 NE13G18   30.12S
FORT CARSON    CLOUDY    67  31  26 NE13G20   30.05F
LIMON          PTSUNNY   67  35  30 NE22      30.04F
MONUMENT HILL  CLOUDY    55  32  41 NE8       30.12S
TRINIDAD       MOSUNNY   73  29  19 N7        30.01F
$$

COZ042>045-048>051-090-091-192000-
...NORTHEAST COLORADO...

CITY           SKY/WX    TMP DP  RH WIND       PRES   REMARKS
GREELEY ARPT   CLOUDY    63  41  45 SE6       30.07F
AKRON          CLOUDY    61  40  45 NE10      30.06S
BURLINGTON     PTSUNNY   69  43  38 N22       29.99F
WRAY           PTSUNNY   66  41  40 N13G21    30.03S
STERLING       CLOUDY    59  39  47 NE10      30.06S
HOLYOKE        PTSUNNY   66  37  34 N16       30.04S
FORT MORGAN    CLOUDY    60  38  43 NE9       30.07F
$$

COZ086-089-092>099-192000-
...SOUTHEAST COLORADO...

CITY           SKY/WX    TMP DP  RH WIND       PRES   REMARKS
PUEBLO         MOSUNNY   74  31  20 E15G25    29.98F
LA JUNTA       SUNNY     75  30  19 VRB3      29.95F
LAMAR          SUNNY     79  35  20 CALM      29.91F
SPRINGFIELD      N/A     78  33  19 SW12G25   29.95F
$$



USA.gov is the U.S. government's official web portal to all federal, state and local government web resources and services.